Regional Weather Roundup
Issued by NWS Nashville, TN

Home | Current Version | Previous Version | Text Only | Print | Product List | Glossary On
Versions: 1 2 3 4 5 6 7 8 9 10 11 12 13 14 15 16 17 18 19 20 21 22 23 24 25 26 27 28 29 30 31 32 33 34 35 36 37 38 39 40 41 42 43 44 45 46 47 48 49 50
000
ASUS44 KOHX 301315
RWROHX
MIDDLE TENNESSEE HOURLY WEATHER ROUNDUP
NATIONAL WEATHER SERVICE NASHVILLE TN
800 AM CDT THU OCT 30 2014

NOTE: "FAIR" INDICATES FEW OR NO CLOUDS BELOW 12,000 FEET WITH
NO SIGNIFICANT WEATHER AND/OR OBSTRUCTIONS TO VISIBILITY.

* THESE REPORTS ARE NOT UNDER NWS QUALITY CONTROL AND MAY NOT
  REPORT WEATHER SUCH AS PRECIPITATION AND FOG.


TNZ005>011-023>034-057-059-062>066-078-080-301400
...NORTHERN MIDDLE TENNESSEE...

CITY           SKY/WX    TMP DP  RH WIND       PRES   REMARKS
CLARKSVILLE    CLEAR     36  35  96 W3        30.18R
CROSSVILLE     SUNNY     39  35  86 CALM      30.13R
GALLATIN         N/A     36  35  96 CALM      30.17R
DICKSON        CLEAR     37  36  93 CALM      30.15S
LEBANON        CLEAR     36  36 100 CALM      30.15R
LIVINGSTON     CLEAR     39  37  92 CALM      30.14
NASHVILLE      CLEAR     42  40  92 CALM      30.17S
WEST NASHVILLE CLOUDY    36  36 100 CALM      30.18R VSB<1/4
PORTLAND       CLEAR     34  34 100 CALM      30.15S
ROCKWOOD       SUNNY     40  36  86 NW3       30.11R
SMYRNA         CLEAR     40  37  89 CALM      30.18R
SPARTA         CLEAR     37  37 100 CALM      30.15R
$$
TNZ056-058-060-061-075>077-079-093>097-301400
...SOUTHERN MIDDLE TENNESSEE...

CITY           SKY/WX    TMP DP  RH WIND       PRES   REMARKS
COLUMBIA       CLOUDY   N/A N/A N/A CALM      30.15R VSB 0
FAYETTEVILLE   CLEAR     43  37  81 NE15G190  30.14R
MCMINNVILLE    CLEAR     37  37 100 CALM      30.15R
MURFREESBORO   CLEAR     40  38  93 VRB3      30.16R
SHELBYVILLE    CLEAR     37  36  93 CALM      30.17R
TULLAHOMA      CLEAR     36  32  87 CALM      30.15R
WINCHESTER     CLEAR     37  36  93 CALM      30.15S
$$


...KEY TO REMARKS...
VSB - VISIBILITY IN MILES
WCI - WIND CHILL INDEX
HX  - HEAT INDEX




USA.gov is the U.S. government's official web portal to all federal, state and local government web resources and services.